Hourly Weather Ruda

Today, 18 April, Sunday

Time Temperature Precipitation Wind Pressure Humidity
00:00 +6°C° 0 mm 2 mps 756 mmHg 93%
01:00 +5°C° 0 mm 2 mps 756 mmHg 94%
02:00 +5°C° 0 mm 2 mps 756 mmHg 94%
03:00 +5°C° 0 mm 2 mps 757 mmHg 94%
04:00 +4°C° 0 mm 2 mps 757 mmHg 94%
05:00 +5°C° 0 mm 2 mps 757 mmHg 90%
06:00 +6°C° 0 mm 2 mps 757 mmHg 85%
07:00 +7°C° 0 mm 2 mps 757 mmHg 81%
08:00 +9°C° 0 mm 2 mps 757 mmHg 75%
09:00 +10°C° 0 mm 2 mps 757 mmHg 69%
10:00 +12°C° 0 mm 2 mps 757 mmHg 62%
11:00 +13°C° 0 mm 2 mps 757 mmHg 60%
12:00 +14°C° 0 mm 2 mps 757 mmHg 58%
13:00 +13°C° 0 mm 3 mps 757 mmHg 56%
14:00 +13°C° 0 mm 3 mps 757 mmHg 60%
15:00 +12°C° 0 mm 3 mps 757 mmHg 65%
16:00 +12°C° 0 mm 3 mps 757 mmHg 70%
17:00 +12°C° 0 mm 2 mps 757 mmHg 74%
18:00 +12°C° 0 mm 2 mps 757 mmHg 78%
19:00 +10°C° 0 mm 2 mps 757 mmHg 82%
20:00 +10°C° 0 mm 2 mps 757 mmHg 82%
21:00 +9°C° 0 mm 2 mps 757 mmHg 83%
22:00 +9°C° 0 mm 2 mps 757 mmHg 84%
23:00 +9°C° 0 mm 2 mps 757 mmHg 86%

Tomorrow, 19 April, Monday

Time Temperature Precipitation Wind Pressure Humidity
00:00 +9°C° 0 mm 2 mps 757 mmHg 87%
01:00 +8°C° 0 mm 2 mps 757 mmHg 89%
02:00 +8°C° 0.1 mm 2 mps 756 mmHg 90%
03:00 +8°C° 0.1 mm 2 mps 756 mmHg 92%
04:00 +7°C° 0.1 mm 2 mps 756 mmHg 93%
05:00 +8°C° 0 mm 3 mps 756 mmHg 89%
06:00 +9°C° 0 mm 3 mps 756 mmHg 85%
07:00 +10°C° 0 mm 4 mps 757 mmHg 81%
08:00 +11°C° 0 mm 4 mps 757 mmHg 72%
09:00 +12°C° 0 mm 5 mps 757 mmHg 62%
10:00 +14°C° 0 mm 5 mps 757 mmHg 53%
11:00 +14°C° 0 mm 5 mps 756 mmHg 50%
12:00 +15°C° 0 mm 5 mps 756 mmHg 47%
13:00 +15°C° 0 mm 5 mps 756 mmHg 43%
14:00 +14°C° 0 mm 5 mps 756 mmHg 48%
15:00 +14°C° 0 mm 5 mps 756 mmHg 53%
16:00 +13°C° 0 mm 5 mps 756 mmHg 58%
17:00 +12°C° 0 mm 4 mps 756 mmHg 62%
18:00 +11°C° 0 mm 4 mps 756 mmHg 66%
19:00 +10°C° 0 mm 4 mps 756 mmHg 71%
20:00 +9°C° 0 mm 3 mps 756 mmHg 73%
21:00 +8°C° 0 mm 3 mps 756 mmHg 75%
22:00 +8°C° 0 mm 3 mps 756 mmHg 77%
23:00 +8°C° 0 mm 3 mps 756 mmHg 76%

Day after tomorrow, 20 April, Tuesday

Time Temperature Precipitation Wind Pressure Humidity
00:00 +8°C° 0 mm 3 mps 755 mmHg 75%
01:00 +8°C° 0 mm 3 mps 755 mmHg 74%
02:00 +8°C° 0 mm 3 mps 755 mmHg 74%
03:00 +8°C° 0 mm 3 mps 755 mmHg 74%
04:00 +8°C° 0 mm 2 mps 755 mmHg 74%
05:00 +8°C° 0 mm 2 mps 755 mmHg 74%
06:00 +8°C° 0 mm 2 mps 755 mmHg 73%
07:00 +8°C° 0 mm 2 mps 755 mmHg 72%
08:00 +9°C° 0 mm 2 mps 755 mmHg 69%
09:00 +9°C° 0 mm 2 mps 755 mmHg 67%
10:00 +10°C° 0 mm 2 mps 754 mmHg 64%
11:00 +12°C° 0 mm 2 mps 754 mmHg 59%
12:00 +13°C° 0 mm 2 mps 754 mmHg 53%
13:00 +14°C° 0 mm 1 mps 753 mmHg 48%
14:00 +14°C° 0.1 mm 2 mps 753 mmHg 50%
15:00 +14°C° 0.1 mm 2 mps 753 mmHg 52%
16:00 +14°C° 0.1 mm 2 mps 752 mmHg 54%
17:00 +13°C° 0.1 mm 2 mps 752 mmHg 60%
18:00 +10°C° 0.1 mm 2 mps 752 mmHg 67%
19:00 +9°C° 0.1 mm 2 mps 752 mmHg 74%
20:00 +9°C° 0 mm 2 mps 752 mmHg 76%
21:00 +9°C° 0 mm 1 mps 752 mmHg 78%
22:00 +9°C° 0 mm 1 mps 752 mmHg 81%
23:00 +8°C° 0 mm 1 mps 752 mmHg 82%

21 April, Wednesday

Time Temperature Precipitation Wind Pressure Humidity
00:00 +8°C° 0 mm 1 mps 752 mmHg 84%
01:00 +6°C° 0 mm 2 mps 752 mmHg 86%
02:00 +6°C° 0 mm 2 mps 752 mmHg 87%
03:00 +6°C° 0 mm 2 mps 752 mmHg 89%
04:00 +5°C° 0 mm 2 mps 751 mmHg 90%
05:00 +6°C° 0 mm 2 mps 752 mmHg 86%
06:00 +7°C° 0 mm 2 mps 752 mmHg 82%
07:00 +8°C° 0 mm 2 mps 752 mmHg 78%
08:00 +9°C° 0.1 mm 3 mps 752 mmHg 71%
09:00 +11°C° 0.1 mm 3 mps 751 mmHg 63%
10:00 +12°C° 0.1 mm 3 mps 751 mmHg 55%
11:00 +12°C° 0 mm 4 mps 751 mmHg 53%
12:00 +13°C° 0 mm 4 mps 751 mmHg 52%
13:00 +13°C° 0 mm 4 mps 751 mmHg 50%
14:00 +13°C° 0 mm 3 mps 751 mmHg 50%
15:00 +13°C° 0 mm 3 mps 750 mmHg 50%
16:00 +13°C° 0 mm 3 mps 750 mmHg 50%
17:00 +12°C° 0 mm 3 mps 750 mmHg 57%
18:00 +12°C° 0 mm 2 mps 750 mmHg 65%
19:00 +9°C° 0 mm 2 mps 750 mmHg 72%
20:00 +9°C° 0.1 mm 2 mps 750 mmHg 78%
21:00 +8°C° 0.1 mm 2 mps 750 mmHg 83%
22:00 +7°C° 0.1 mm 3 mps 750 mmHg 88%
23:00 +7°C° 0.1 mm 3 mps 750 mmHg 89%

22 April, Thursday

Time Temperature Precipitation Wind Pressure Humidity
00:00 +8°C° 0.1 mm 3 mps 750 mmHg 90%
01:00 +8°C° 0.1 mm 3 mps 750 mmHg 91%
02:00 +7°C° 0.2 mm 3 mps 751 mmHg 92%
03:00 +7°C° 0.2 mm 3 mps 751 mmHg 92%
04:00 +5°C° 0.2 mm 3 mps 751 mmHg 93%
05:00 +5°C° 0 mm 3 mps 752 mmHg 87%
06:00 +5°C° 0 mm 3 mps 752 mmHg 81%
07:00 +6°C° 0 mm 4 mps 753 mmHg 75%
08:00 +6°C° 0 mm 4 mps 753 mmHg 69%
09:00 +7°C° 0 mm 4 mps 753 mmHg 62%
10:00 +8°C° 0 mm 4 mps 753 mmHg 55%
11:00 +9°C° 0 mm 5 mps 753 mmHg 51%
12:00 +9°C° 0 mm 5 mps 753 mmHg 46%
13:00 +10°C° 0 mm 6 mps 753 mmHg 42%
14:00 +10°C° 0 mm 5 mps 753 mmHg 42%
15:00 +9°C° 0 mm 5 mps 753 mmHg 42%
16:00 +9°C° 0 mm 5 mps 753 mmHg 42%
17:00 +8°C° 0 mm 4 mps 754 mmHg 50%
18:00 +7°C° 0 mm 3 mps 754 mmHg 58%
19:00 +6°C° 0 mm 2 mps 754 mmHg 67%
20:00 +4°C° 0 mm 3 mps 754 mmHg 72%
21:00 +3°C° 0 mm 3 mps 754 mmHg 77%
22:00 +3°C° 0 mm 3 mps 755 mmHg 81%
23:00 +3°C° 0 mm 3 mps 755 mmHg 82%

23 April, Friday

Time Temperature Precipitation Wind Pressure Humidity
00:00 +3°C° 0 mm 3 mps 755 mmHg 83%
01:00 +3°C° 0 mm 3 mps 755 mmHg 84%
02:00 +4°C° 0.1 mm 2 mps 755 mmHg 86%
03:00 +4°C° 0.1 mm 2 mps 755 mmHg 88%
04:00 +4°C° 0.1 mm 2 mps 756 mmHg 90%
05:00 +4°C° 0.2 mm 2 mps 756 mmHg 90%
06:00 +3°C° 0.2 mm 3 mps 757 mmHg 90%
07:00 +3°C° 0.2 mm 3 mps 757 mmHg 90%
08:00 +4°C° 0.2 mm 4 mps 758 mmHg 82%
09:00 +5°C° 0.2 mm 4 mps 758 mmHg 73%
10:00 +6°C° 0.2 mm 5 mps 759 mmHg 65%
11:00 +7°C° 0.3 mm 5 mps 759 mmHg 62%
12:00 +7°C° 0.3 mm 5 mps 759 mmHg 59%
13:00 +8°C° 0.3 mm 6 mps 760 mmHg 57%
14:00 +8°C° 0.1 mm 6 mps 760 mmHg 56%
15:00 +8°C° 0.1 mm 6 mps 760 mmHg 55%
16:00 +8°C° 0.1 mm 6 mps 760 mmHg 54%
17:00 +7°C° 0 mm 5 mps 761 mmHg 57%
18:00 +6°C° 0 mm 5 mps 761 mmHg 60%
19:00 +5°C° 0 mm 4 mps 762 mmHg 63%
20:00 +4°C° 0 mm 4 mps 762 mmHg 65%
21:00 +3°C° 0 mm 4 mps 763 mmHg 67%
22:00 +2°C° 0 mm 3 mps 763 mmHg 69%
23:00 +1°C° 0 mm 3 mps 763 mmHg 71%
Show more